Weather History for Cleveland Burke, OH

Change the Weather History Date:

Sunday, July 22, 2012

  Actual Average Record
Temperature  
Mean Temperature 78 °F -  
Max Temperature 86 °F 79 °F 93 °F (2002)
Min Temperature 73 °F 65 °F 62 °F (2000)
Cooling Degree Days 14    
Growing Degree Days 28 (Base 50)    
Moisture  
Dew Point 64 °F    
Average Humidity 60    
Maximum Humidity 66    
Minimum Humidity 51    
Precipitation  
Precipitation 0.00 in - - ()
Sea Level Pressure  
Sea Level Pressure 30.06 in    
Wind  
Wind Speed 7 mph (SW)    
Max Wind Speed 13 mph    
Max Gust Speed 43 mph    
Visibility 10 miles    
Events      
Averages and records for this station are not official NWS values.
T = Trace of Precipitation, MM = Missing Value Source: NWS Daily Summary

Daily Weather History Graph

Daily Weather History Graph

Search for Another Location

Airport:

Trip Planner

Search our weather history database for the weather conditions in past years. The results will help you decide how hot, cold, wet, or windy it might be!

Date:

Astronomy

Jul. 22, 2012 Rise Set
Actual Time 6:12 AM EDT 8:53 PM EDT
Civil Twilight 5:40 AM EDT 9:25 PM EDT
Nautical Twilight 4:59 AM EDT 10:05 PM EDT
Astronomical Twilight 4:13 AM EDT 10:51 PM EDT
Moon 10:00 AM EDT 10:31 PM EDT
Length of Visible Light 15h 45m
Length of Day
14h 41m
Waxing Crescent, 13% of the Moon is Illuminated
Jul 22
Waxing Crescent
Jul 26
First Quarter
Aug 1
Full
Aug 9
Last Quarter
Aug 17
New

Hourly Weather History & Observations

Time (EDT) Temp. Heat Index Dew Point Humidity Pressure Visibility Wind Dir Wind Speed Gust Speed Precip Events Conditions
12:53 AM 73.9 °F - 57.9 °F 57% 30.06 in 10.0 mi SSE 5.8 mph - N/A   Clear
1:53 AM 73.0 °F - 59.0 °F 61% 30.05 in 10.0 mi SSE 9.2 mph - N/A   Clear
2:53 AM 73.0 °F - 59.0 °F 61% 30.05 in 10.0 mi South 5.8 mph - N/A   Clear
3:53 AM 73.0 °F - 60.1 °F 64% 30.05 in 9.0 mi South 4.6 mph - N/A   Clear
4:53 AM 73.0 °F - 61.0 °F 66% 30.05 in 10.0 mi SSE 5.8 mph - N/A   Clear
5:53 AM 73.0 °F - 61.0 °F 66% 30.07 in 10.0 mi South 5.8 mph - N/A   Clear
6:53 AM 73.0 °F - 60.1 °F 64% 30.08 in 10.0 mi South 5.8 mph - N/A   Clear
7:53 AM 75.9 °F - 59.0 °F 56% 30.10 in 10.0 mi SW 8.1 mph - N/A   Clear
8:53 AM 78.1 °F - 60.1 °F 54% 30.11 in 10.0 mi WSW 8.1 mph - N/A   Clear
9:53 AM 80.1 °F 81.1 °F 61.0 °F 52% 30.09 in 10.0 mi WSW 9.2 mph - N/A   Clear
10:53 AM 82.0 °F 83.8 °F 64.9 °F 56% 30.10 in 10.0 mi West 9.2 mph - N/A   Clear
11:53 AM 82.0 °F 84.5 °F 66.9 °F 60% 30.10 in 10.0 mi WNW 5.8 mph - N/A   Clear
12:53 PM 82.0 °F 84.9 °F 68.0 °F 62% 30.09 in 10.0 mi WNW 8.1 mph - N/A   Clear
1:53 PM 82.0 °F 85.5 °F 69.1 °F 65% 30.08 in 10.0 mi WNW 8.1 mph - N/A   Clear
2:53 PM 82.9 °F 87.0 °F 70.0 °F 65% 30.06 in 10.0 mi WNW 10.4 mph 42.6 mph N/A   Mostly Cloudy
3:53 PM 84.9 °F 88.8 °F 69.1 °F 59% 30.05 in 10.0 mi WNW 6.9 mph - N/A   Scattered Clouds
4:53 PM 84.0 °F 89.0 °F 71.1 °F 65% 30.04 in 10.0 mi NW 5.8 mph - N/A   Overcast
5:53 PM 84.0 °F 89.0 °F 71.1 °F 65% 30.03 in 10.0 mi WNW 4.6 mph - N/A   Clear
6:53 PM 82.9 °F 86.5 °F 69.1 °F 63% 30.02 in 10.0 mi Calm Calm - N/A   Partly Cloudy
7:53 PM 84.0 °F 87.0 °F 68.0 °F 58% 30.02 in 10.0 mi WSW 5.8 mph - N/A   Clear
8:53 PM 84.0 °F 85.4 °F 64.0 °F 51% 30.02 in 10.0 mi WSW 12.7 mph - N/A   Clear
9:53 PM 84.0 °F 85.4 °F 64.0 °F 51% 30.04 in 10.0 mi SSW 9.2 mph - N/A   Clear
10:53 PM 82.9 °F 84.6 °F 64.9 °F 54% 30.04 in 10.0 mi South 10.4 mph - N/A   Clear
11:53 PM 82.0 °F 83.8 °F 64.9 °F 56% 30.05 in 10.0 mi SSW 10.4 mph - N/A   Clear